| time (UTC) | temp F | wind direction | speed MPH | gust MPH | rain 1hr in | rain 24hr in | rain mn in | humidity % | barometer mb |
| 20260906111540 | 69 | 23 | 0.0 | 0.0 | 0.00 | 0.00 | 0.00 | 90 | 1012.2 |
| 20260906110038 | 70 | 23 | 0.0 | 0.0 | 0.00 | 0.00 | 0.00 | 90 | 1012.1 |
| 20260906104537 | 70 | 23 | 0.0 | 0.0 | 0.00 | 0.00 | 0.00 | 89 | 1012.0 |
| 20260906103038 | 70 | 23 | 0.0 | 0.0 | 0.00 | 0.00 | 0.00 | 89 | 1012.2 |
| 20260906101537 | 70 | 23 | 0.0 | 0.0 | 0.00 | 0.00 | 0.00 | 89 | 1011.8 |
| 20260906100041 | 70 | 23 | 0.0 | 0.0 | 0.00 | 0.00 | 0.00 | 89 | 1011.7 |
| 20260906094536 | 70 | 23 | 0.0 | 0.0 | 0.00 | 0.00 | 0.00 | 89 | 1011.8 |
| 20260906093047 | 70 | 23 | 0.0 | 0.0 | 0.00 | 0.00 | 0.00 | 89 | 1011.6 |
| 20260906091532 | 70 | 23 | 0.0 | 0.0 | 0.00 | 0.00 | 0.00 | 89 | 1011.7 |
| 20260906090033 | 70 | 23 | 0.0 | 0.0 | 0.00 | 0.00 | 0.00 | 88 | 1011.3 |
| 20260906084531 | 70 | 23 | 0.0 | 0.0 | 0.00 | 0.00 | 0.00 | 89 | 1011.2 |
| 20260906083031 | 70 | 23 | 0.0 | 0.0 | 0.00 | 0.00 | 0.00 | 89 | 1011.1 |
| 20260906081545 | 70 | 23 | 0.0 | 0.0 | 0.00 | 0.00 | 0.00 | 88 | 1011.0 |
| 20260906080029 | 70 | 23 | 0.0 | 0.0 | 0.00 | 0.00 | 0.00 | 87 | 1010.9 |
| 20260906074529 | 70 | 23 | 0.0 | 0.0 | 0.00 | 0.00 | 0.00 | 87 | 1010.9 |
| 20260906073045 | 70 | 23 | 0.0 | 0.0 | 0.00 | 0.00 | 0.00 | 87 | 1010.7 |
| 20260906071528 | 70 | 23 | 0.0 | 0.0 | 0.00 | 0.00 | 0.00 | 87 | 1010.9 |
| 20260906070036 | 70 | 23 | 0.0 | 0.0 | 0.00 | 0.00 | 0.00 | 86 | 1011.1 |
| 20260906064524 | 70 | 23 | 0.0 | 0.0 | 0.00 | 0.00 | 0.00 | 87 | 1011.2 |
| 20260906063022 | 71 | 23 | 0.0 | 0.0 | 0.00 | 0.00 | 0.00 | 86 | 1011.3 |
| 20260906061520 | 71 | 23 | 0.0 | 0.0 | 0.00 | 0.00 | 0.00 | 86 | 1011.3 |
| 20260906060018 | 71 | 23 | 0.0 | 0.0 | 0.00 | 0.00 | 0.00 | 85 | 1011.3 |
| 20260906054522 | 72 | 23 | 0.0 | 0.0 | 0.00 | 0.00 | 0.00 | 85 | 1011.4 |
| 20260906053015 | 72 | 23 | 0.0 | 0.0 | 0.00 | 0.00 | 0.00 | 84 | 1011.4 |
| 20260906051520 | 72 | 23 | 0.0 | 0.0 | 0.00 | 0.00 | 0.00 | 83 | 1011.3 |
| 20260906050012 | 73 | 23 | 0.0 | 0.0 | 0.00 | 0.00 | 0.00 | 82 | 1011.1 |
| 20260906044512 | 73 | 23 | 0.0 | 0.0 | 0.00 | 0.00 | 0.00 | 81 | 1011.4 |
| 20260906043009 | 73 | 23 | 0.0 | 0.0 | 0.00 | 0.00 | 0.00 | 81 | 1011.1 |
| 20260906041508 | 74 | 23 | 0.0 | 0.0 | 0.00 | 0.00 | 0.00 | 80 | 1011.3 |
| 20260906040004 | 74 | 23 | 0.0 | 0.0 | 0.00 | 0.00 | 0.00 | 79 | 1011.2 |
| 20260906034503 | 75 | 23 | 0.0 | 0.0 | 0.00 | 0.00 | 0.00 | 78 | 1011.3 |
| 20260906033002 | 75 | 23 | 0.0 | 1.0 | 0.00 | 0.00 | 0.00 | 77 | 1011.6 |
| 20260906031501 | 76 | 23 | 0.0 | 4.0 | 0.00 | 0.00 | 0.00 | 76 | 1011.5 |
| 20260906030108 | 76 | 23 | 0.0 | 3.0 | 0.00 | 0.00 | 0.00 | 73 | 1011.5 |
| 20260906024600 | 77 | 23 | 0.0 | 1.0 | 0.00 | 0.00 | 0.00 | 68 | 1011.5 |
| 20260906023127 | 77 | 23 | 0.0 | 0.0 | 0.00 | 0.00 | 0.00 | 67 | 1011.3 |
| 20260906021559 | 77 | 23 | 0.0 | 1.0 | 0.00 | 0.00 | 0.00 | 67 | 1011.0 |
| 20260906020058 | 77 | 23 | 0.0 | 1.0 | 0.00 | 0.00 | 0.00 | 66 | 1011.0 |
| 20260906014623 | 78 | 23 | 0.0 | 0.0 | 0.00 | 0.00 | 0.00 | 66 | 1010.8 |
| 20260906013058 | 78 | 23 | 0.0 | 1.0 | 0.00 | 0.00 | 0.00 | 66 | 1010.7 |
| 20260906011559 | 79 | 23 | 0.0 | 2.0 | 0.00 | 0.00 | 0.00 | 65 | 1010.5 |
| 20260906010055 | 80 | 23 | 0.0 | 1.0 | 0.00 | 0.00 | 0.00 | 63 | 1010.4 |
| 20260906004608 | 81 | 23 | 0.0 | 2.0 | 0.00 | 0.00 | 0.00 | 61 | 1010.3 |
| 20260906003056 | 81 | 23 | 0.0 | 0.0 | 0.00 | 0.00 | 0.00 | 60 | 1010.2 |
| 20260906001554 | 82 | 23 | 0.0 | 2.0 | 0.00 | 0.00 | 0.00 | 59 | 1010.0 |
| 20260906000105 | 82 | 23 | 0.0 | 0.0 | 0.00 | 0.00 | 0.00 | 59 | 1009.8 |
| 20260905234557 | 83 | 23 | 0.0 | 2.0 | 0.00 | 0.00 | 0.00 | 61 | 1009.6 |
| 20260905233056 | 83 | 23 | 0.0 | 1.0 | 0.00 | 0.00 | 0.00 | 60 | 1009.7 |
| 20260905231554 | 84 | 23 | 0.0 | 0.0 | 0.00 | 0.00 | 0.00 | 57 | 1009.6 |
| 20260905230052 | 84 | 23 | 0.0 | 1.0 | 0.00 | 0.00 | 0.00 | 57 | 1009.6 |
| 20260905224603 | 85 | 23 | 0.0 | 1.0 | 0.00 | 0.00 | 0.00 | 57 | 1009.5 |
| 20260905223051 | 85 | 23 | 0.0 | 2.0 | 0.00 | 0.00 | 0.00 | 56 | 1009.5 |
| 20260905221550 | 85 | 23 | 1.0 | 3.0 | 0.00 | 0.00 | 0.00 | 57 | 1009.6 |
| 20260905220050 | 86 | 23 | 1.0 | 6.0 | 0.00 | 0.00 | 0.00 | 56 | 1009.3 |
| 20260905214549 | 87 | 20 | 0.0 | 4.0 | 0.00 | 0.00 | 0.00 | 50 | 1009.4 |
| 20260905213049 | 87 | 20 | 0.0 | 8.0 | 0.00 | 0.00 | 0.00 | 52 | 1009.1 |
| 20260905211549 | 88 | 360 | 0.0 | 3.0 | 0.00 | 0.00 | 0.00 | 51 | 1009.0 |
| 20260905210047 | 88 | 266 | 0.0 | 2.0 | 0.00 | 0.00 | 0.00 | 52 | 1009.0 |
| 20260905204547 | 88 | 265 | 0.0 | 3.0 | 0.00 | 0.00 | 0.00 | 49 | 1009.1 |
| 20260905203047 | 89 | 250 | 0.0 | 5.0 | 0.00 | 0.00 | 0.00 | 48 | 1009.0 |
| 20260905201547 | 89 | 205 | 0.0 | 4.0 | 0.00 | 0.00 | 0.00 | 47 | 1009.0 |
| 20260905200052 | 90 | 200 | 0.0 | 7.0 | 0.00 | 0.00 | 0.00 | 46 | 1008.9 |
| 20260905194539 | 88 | 22 | 0.0 | 4.0 | 0.00 | 0.00 | 0.00 | 48 | 1008.7 |
| 20260905193040 | 87 | 23 | 0.0 | 6.0 | 0.00 | 0.00 | 0.00 | 50 | 1008.8 |
| 20260905191538 | 87 | 284 | 0.0 | 3.0 | 0.00 | 0.00 | 0.00 | 55 | 1009.1 |
| 20260905190045 | 87 | 286 | 0.0 | 4.0 | 0.00 | 0.00 | 0.00 | 56 | 1009.6 |
| 20260905184531 | 86 | 267 | 0.0 | 10.0 | 0.00 | 0.00 | 0.00 | 59 | 1009.9 |
| 20260905183025 | 85 | 11 | 1.0 | 3.0 | 0.00 | 0.00 | 0.00 | 62 | 1010.2 |
| 20260905181526 | 84 | 11 | 1.0 | 8.0 | 0.00 | 0.00 | 0.00 | 62 | 1010.5 |
| 20260905180023 | 84 | 19 | 0.0 | 4.0 | 0.00 | 0.00 | 0.00 | 61 | 1010.6 |
| 20260905174522 | 84 | 19 | 0.0 | 1.0 | 0.00 | 0.00 | 0.00 | 60 | 1010.5 |
| 20260905173021 | 84 | 19 | 0.0 | 3.0 | 0.00 | 0.00 | 0.00 | 60 | 1010.4 |
| 20260905171517 | 84 | 19 | 1.0 | 6.0 | 0.00 | 0.00 | 0.00 | 62 | 1010.7 |
| 20260905170015 | 84 | 20 | 1.0 | 6.0 | 0.00 | 0.00 | 0.00 | 61 | 1011.0 |
| 20260905164511 | 83 | 28 | 0.0 | 3.0 | 0.00 | 0.00 | 0.00 | 65 | 1011.3 |
| 20260905163012 | 82 | 28 | 0.0 | 2.0 | 0.00 | 0.00 | 0.00 | 66 | 1011.5 |
| 20260905161508 | 82 | 28 | 0.0 | 3.0 | 0.00 | 0.00 | 0.00 | 66 | 1011.4 |
| 20260905160009 | 81 | 28 | 1.0 | 5.0 | 0.00 | 0.00 | 0.00 | 68 | 1011.9 |
| 20260905154506 | 81 | 28 | 0.0 | 5.0 | 0.00 | 0.00 | 0.00 | 70 | 1012.2 |
| 20260905153005 | 81 | 28 | 0.0 | 6.0 | 0.00 | 0.00 | 0.00 | 70 | 1012.3 |
| 20260905151505 | 82 | 26 | 2.0 | 9.0 | 0.00 | 0.00 | 0.00 | 69 | 1012.3 |
| 20260905150004 | 83 | 30 | 0.0 | 1.0 | 0.00 | 0.00 | 0.00 | 70 | 1011.9 |
| 20260905144502 | 83 | 30 | 0.0 | 1.0 | 0.00 | 0.00 | 0.00 | 69 | 1011.6 |
| 20260905143001 | 82 | 30 | 0.0 | 2.0 | 0.00 | 0.00 | 0.00 | 71 | 1011.8 |
| 20260905141559 | 81 | 30 | 0.0 | 1.0 | 0.00 | 0.00 | 0.00 | 72 | 1011.7 |
| 20260905140104 | 80 | 30 | 1.0 | 4.0 | 0.00 | 0.00 | 0.00 | 75 | 1011.5 |
| 20260905134551 | 78 | 30 | 0.0 | 3.0 | 0.00 | 0.00 | 0.00 | 78 | 1011.7 |
| 20260905133046 | 77 | 30 | 0.0 | 0.0 | 0.00 | 0.00 | 0.00 | 81 | 1011.4 |
| 20260905131557 | 76 | 30 | 0.0 | 2.0 | 0.00 | 0.00 | 0.00 | 83 | 1011.3 |
| 20260905130042 | 75 | 30 | 0.0 | 1.0 | 0.00 | 0.00 | 0.00 | 86 | 1011.3 |
| 20260905124534 | 73 | 30 | 1.0 | 2.0 | 0.00 | 0.00 | 0.00 | 87 | 1011.3 |
| 20260905123035 | 71 | 30 | 0.0 | 1.0 | 0.00 | 0.00 | 0.00 | 88 | 1011.2 |
| 20260905121537 | 71 | 30 | 0.0 | 1.0 | 0.00 | 0.00 | 0.00 | 89 | 1011.5 |
| 20260905120038 | 70 | 30 | 0.0 | 1.0 | 0.00 | 0.00 | 0.00 | 89 | 1011.4 |
| 20260905114532 | 70 | 30 | 0.0 | 1.0 | 0.00 | 0.00 | 0.00 | 89 | 1011.3 |